owner,sensor,date,latitude,longitude,vertical_datum,wind_speed,wind_to_direction,wind_speed_of_gust,qcFlag 
TCOON,ioos:station:TCOON:068:1,2005-02-01T00:00:00Z,27.2970,-97.4049,0.0,8.0,330.0,99.0,'11111222,11111222,11144222' 
TCOON,ioos:station:TCOON:068:1,2005-02-01T01:00:00Z,27.2970,-97.4049,0.0,8.0,340.0,99.0,'11111222,11111222,11144222' 
TCOON,ioos:station:TCOON:068:1,2005-02-01T02:00:00Z,27.2970,-97.4049,0.0,7.0,320.0,99.0,'11111222,11111222,11144222' 
TCOON,ioos:station:TCOON:068:1,2005-02-01T04:00:00Z,27.2970,-97.4049,0.0,8.0,330.0,99.0,'11111222,11111222,11144222' 
TCOON,ioos:station:TCOON:068:1,2005-02-01T05:00:00Z,27.2970,-97.4049,0.0,7.0,320.0,99.0,'11111222,11111222,11144222' 
TCOON,ioos:station:TCOON:068:1,2005-02-01T07:00:00Z,27.2970,-97.4049,0.0,5.0,300.0,99.0,'11111222,11111222,11144222' 
TCOON,ioos:station:TCOON:068:1,2005-02-01T08:00:00Z,27.2970,-97.4049,0.0,6.0,310.0,99.0,'11111222,11111222,11144222' 
TCOON,ioos:station:TCOON:068:1,2005-02-01T10:00:00Z,27.2970,-97.4049,0.0,6.0,300.0,99.0,'11111222,11111222,11144222' 
TCOON,ioos:station:TCOON:068:1,2005-02-01T11:00:00Z,27.2970,-97.4049,0.0,6.0,300.0,99.0,'11111222,11111222,11144222' 
TCOON,ioos:station:TCOON:068:1,2005-02-01T13:00:00Z,27.2970,-97.4049,0.0,6.0,310.0,99.0,'11111222,11111222,11144222' 
TCOON,ioos:station:TCOON:068:1,2005-02-01T14:00:00Z,27.2970,-97.4049,0.0,6.0,310.0,99.0,'11111222,11111222,11144222' 
TCOON,ioos:station:TCOON:068:1,2005-02-01T16:00:00Z,27.2970,-97.4049,0.0,6.0,340.0,99.0,'11111222,11111222,11144222' 
TCOON,ioos:station:TCOON:068:1,2005-02-01T17:00:00Z,27.2970,-97.4049,0.0,6.0,330.0,99.0,'11111222,11111222,11144222' 
TCOON,ioos:station:TCOON:068:1,2005-02-01T19:00:00Z,27.2970,-97.4049,0.0,4.0,310.0,99.0,'11111222,11111222,11144222' 
TCOON,ioos:station:TCOON:068:1,2005-02-01T20:00:00Z,27.2970,-97.4049,0.0,5.0,310.0,99.0,'11111222,11111222,11144222' 
TCOON,ioos:station:TCOON:068:1,2005-02-01T22:00:00Z,27.2970,-97.4049,0.0,8.0,300.0,99.0,'11111222,11111222,11144222' 
TCOON,ioos:station:TCOON:068:1,2005-02-01T23:00:00Z,27.2970,-97.4049,0.0,6.0,300.0,99.0,'11111222,11111222,11144222' 
TCOON,ioos:station:TCOON:068:1,2005-02-02T02:00:00Z,27.2970,-97.4049,0.0,6.0,310.0,99.0,'11111222,11111222,11144222' 
TCOON,ioos:station:TCOON:068:1,2005-02-02T03:00:00Z,27.2970,-97.4049,0.0,6.0,320.0,99.0,'11111222,11111222,11144222' 
TCOON,ioos:station:TCOON:068:1,2005-02-02T04:00:00Z,27.2970,-97.4049,0.0,7.0,310.0,99.0,'11111222,11111222,11144222' 
TCOON,ioos:station:TCOON:068:1,2005-02-02T05:00:00Z,27.2970,-97.4049,0.0,6.0,310.0,99.0,'11111222,11111222,11144222' 
TCOON,ioos:station:TCOON:068:1,2005-02-02T06:00:00Z,27.2970,-97.4049,0.0,8.0,310.0,99.0,'11111222,11111222,11144222' 
TCOON,ioos:station:TCOON:068:1,2005-02-02T07:00:00Z,27.2970,-97.4049,0.0,8.0,310.0,99.0,'11111222,11111222,11144222' 
TCOON,ioos:station:TCOON:068:1,2005-02-02T08:00:00Z,27.2970,-97.4049,0.0,8.0,310.0,99.0,'11111222,11111222,11144222' 
TCOON,ioos:station:TCOON:068:1,2005-02-02T09:00:00Z,27.2970,-97.4049,0.0,7.0,310.0,99.0,'11111222,11111222,11144222' 
TCOON,ioos:station:TCOON:068:1,2005-02-02T10:00:00Z,27.2970,-97.4049,0.0,7.0,300.0,99.0,'11111222,11111222,11144222' 
TCOON,ioos:station:TCOON:068:1,2005-02-02T11:00:00Z,27.2970,-97.4049,0.0,9.0,310.0,99.0,'11111222,11111222,11144222' 
TCOON,ioos:station:TCOON:068:1,2005-02-02T13:00:00Z,27.2970,-97.4049,0.0,8.0,300.0,99.0,'11111222,11111222,11144222' 
TCOON,ioos:station:TCOON:068:1,2005-02-02T14:00:00Z,27.2970,-97.4049,0.0,9.0,310.0,99.0,'11111222,11111222,11144222' 
TCOON,ioos:station:TCOON:068:1,2005-02-02T16:00:00Z,27.2970,-97.4049,0.0,10.0,300.0,99.0,'11111222,11111222,11144222' 
TCOON,ioos:station:TCOON:068:1,2005-02-02T17:00:00Z,27.2970,-97.4049,0.0,10.0,310.0,99.0,'11111222,11111222,11144222' 
TCOON,ioos:station:TCOON:068:1,2005-02-02T19:00:00Z,27.2970,-97.4049,0.0,9.0,300.0,99.0,'11111222,11111222,11144222' 
TCOON,ioos:station:TCOON:068:1,2005-02-02T20:00:00Z,27.2970,-97.4049,0.0,9.0,300.0,99.0,'11111222,11111222,11144222' 
TCOON,ioos:station:TCOON:068:1,2005-02-02T21:00:00Z,27.2970,-97.4049,0.0,9.0,320.0,99.0,'11111222,11111222,11144222' 
TCOON,ioos:station:TCOON:068:1,2005-02-02T22:00:00Z,27.2970,-97.4049,0.0,9.0,310.0,99.0,'11111222,11111222,11144222' 
TCOON,ioos:station:TCOON:068:1,2005-02-02T23:00:00Z,27.2970,-97.4049,0.0,7.0,320.0,99.0,'11111222,11111222,11144222' 
TCOON,ioos:station:TCOON:068:1,2005-02-03T00:00:00Z,27.2970,-97.4049,0.0,6.0,310.0,99.0,'11111222,11111222,11144222' 
TCOON,ioos:station:TCOON:068:1,2005-02-03T01:00:00Z,27.2970,-97.4049,0.0,5.0,330.0,99.0,'11111222,11111222,11144222' 
TCOON,ioos:station:TCOON:068:1,2005-02-03T02:00:00Z,27.2970,-97.4049,0.0,5.0,340.0,99.0,'11111222,11111222,11144222' 
TCOON,ioos:station:TCOON:068:1,2005-02-03T04:00:00Z,27.2970,-97.4049,0.0,5.0,310.0,99.0,'11111222,11111222,11144222' 
TCOON,ioos:station:TCOON:068:1,2005-02-03T05:00:00Z,27.2970,-97.4049,0.0,5.0,320.0,99.0,'11111222,11111222,11144222' 
TCOON,ioos:station:TCOON:068:1,2005-02-03T07:00:00Z,27.2970,-97.4049,0.0,3.0,320.0,99.0,'11111222,11111222,11144222' 
TCOON,ioos:station:TCOON:068:1,2005-02-03T08:00:00Z,27.2970,-97.4049,0.0,3.0,320.0,99.0,'11111222,11111222,11144222' 
TCOON,ioos:station:TCOON:068:1,2005-02-03T09:00:00Z,27.2970,-97.4049,0.0,5.0,300.0,99.0,'11111222,11111222,11144222' 
TCOON,ioos:station:TCOON:068:1,2005-02-03T10:00:00Z,27.2970,-97.4049,0.0,5.0,310.0,99.0,'11111222,11111222,11144222' 
TCOON,ioos:station:TCOON:068:1,2005-02-03T11:00:00Z,27.2970,-97.4049,0.0,6.0,320.0,99.0,'11111222,11111222,11144222' 
TCOON,ioos:station:TCOON:068:1,2005-02-03T13:00:00Z,27.2970,-97.4049,0.0,6.0,310.0,99.0,'11111222,11111222,11144222' 
TCOON,ioos:station:TCOON:068:1,2005-02-03T14:00:00Z,27.2970,-97.4049,0.0,6.0,310.0,99.0,'11111222,11111222,11144222' 
TCOON,ioos:station:TCOON:068:1,2005-02-03T15:00:00Z,27.2970,-97.4049,0.0,6.0,320.0,99.0,'11111222,11111222,11144222' 
TCOON,ioos:station:TCOON:068:1,2005-02-03T16:00:00Z,27.2970,-97.4049,0.0,7.0,340.0,99.0,'11111222,11111222,11144222' 
TCOON,ioos:station:TCOON:068:1,2005-02-03T17:00:00Z,27.2970,-97.4049,0.0,6.0,340.0,99.0,'11111222,11111222,11144222' 
TCOON,ioos:station:TCOON:068:1,2005-02-03T19:00:00Z,27.2970,-97.4049,0.0,7.0,310.0,99.0,'11111222,11111222,11144222' 
TCOON,ioos:station:TCOON:068:1,2005-02-03T20:00:00Z,27.2970,-97.4049,0.0,5.0,310.0,99.0,'11111222,11111222,11144222' 
TCOON,ioos:station:TCOON:068:1,2005-02-03T21:00:00Z,27.2970,-97.4049,0.0,6.0,310.0,99.0,'11111222,11111222,11144222' 
TCOON,ioos:station:TCOON:068:1,2005-02-03T22:00:00Z,27.2970,-97.4049,0.0,5.0,320.0,99.0,'11111222,11111222,11144222' 
TCOON,ioos:station:TCOON:068:1,2005-02-03T23:00:00Z,27.2970,-97.4049,0.0,4.0,300.0,99.0,'11111222,11111222,11144222' 
TCOON,ioos:station:TCOON:068:1,2005-02-04T01:00:00Z,27.2970,-97.4049,0.0,3.0,280.0,99.0,'11111222,11111222,11144222' 
TCOON,ioos:station:TCOON:068:1,2005-02-04T02:00:00Z,27.2970,-97.4049,0.0,3.0,260.0,99.0,'11111222,11111222,11144222' 
TCOON,ioos:station:TCOON:068:1,2005-02-04T04:00:00Z,27.2970,-97.4049,0.0,4.0,270.0,99.0,'11111222,11111222,11144222' 
TCOON,ioos:station:TCOON:068:1,2005-02-04T05:00:00Z,27.2970,-97.4049,0.0,5.0,280.0,99.0,'11111222,11111222,11144222' 
TCOON,ioos:station:TCOON:068:1,2005-02-04T06:00:00Z,27.2970,-97.4049,0.0,4.0,290.0,99.0,'11111222,11111222,11144222' 
TCOON,ioos:station:TCOON:068:1,2005-02-04T07:00:00Z,27.2970,-97.4049,0.0,4.0,300.0,99.0,'11111222,11111222,11144222' 
TCOON,ioos:station:TCOON:068:1,2005-02-04T08:00:00Z,27.2970,-97.4049,0.0,4.0,300.0,99.0,'11111222,11111222,11144222' 
TCOON,ioos:station:TCOON:068:1,2005-02-04T09:00:00Z,27.2970,-97.4049,0.0,3.0,300.0,99.0,'11111222,11111222,11144222' 
TCOON,ioos:station:TCOON:068:1,2005-02-04T10:00:00Z,27.2970,-97.4049,0.0,3.0,300.0,99.0,'11111222,11111222,11144222' 
TCOON,ioos:station:TCOON:068:1,2005-02-04T11:00:00Z,27.2970,-97.4049,0.0,4.0,310.0,99.0,'11111222,11111222,11144222' 
TCOON,ioos:station:TCOON:068:1,2005-02-04T12:00:00Z,27.2970,-97.4049,0.0,3.0,310.0,99.0,'11111222,11111222,11144222' 
TCOON,ioos:station:TCOON:068:1,2005-02-04T13:00:00Z,27.2970,-97.4049,0.0,3.0,300.0,99.0,'11111222,11111222,11144222' 
TCOON,ioos:station:TCOON:068:1,2005-02-04T14:00:00Z,27.2970,-97.4049,0.0,3.0,300.0,99.0,'11111222,11111222,11144222' 
TCOON,ioos:station:TCOON:068:1,2005-02-04T16:00:00Z,27.2970,-97.4049,0.0,2.0,20.0,99.0,'11111222,11111222,11144222' 
TCOON,ioos:station:TCOON:068:1,2005-02-04T17:00:00Z,27.2970,-97.4049,0.0,4.0,360.0,99.0,'11111222,11144222,11144222' 
TCOON,ioos:station:TCOON:068:1,2005-02-04T19:00:00Z,27.2970,-97.4049,0.0,3.0,340.0,99.0,'11111222,11111222,11144222' 
TCOON,ioos:station:TCOON:068:1,2005-02-04T20:00:00Z,27.2970,-97.4049,0.0,4.0,360.0,99.0,'11111222,11144222,11144222' 
TCOON,ioos:station:TCOON:068:1,2005-02-04T21:00:00Z,27.2970,-97.4049,0.0,3.0,20.0,99.0,'11111222,11111222,11144222' 
TCOON,ioos:station:TCOON:068:1,2005-02-04T22:00:00Z,27.2970,-97.4049,0.0,4.0,40.0,99.0,'11111222,11111222,11144222' 
TCOON,ioos:station:TCOON:068:1,2005-02-04T23:00:00Z,27.2970,-97.4049,0.0,3.0,20.0,99.0,'11111222,11111222,11144222' 
TCOON,ioos:station:TCOON:068:1,2005-02-05T00:00:00Z,27.2970,-97.4049,0.0,2.0,40.0,99.0,'11111222,11111222,11144222' 
TCOON,ioos:station:TCOON:068:1,2005-02-05T01:00:00Z,27.2970,-97.4049,0.0,0.0,0.0,99.0,'11111222,11111222,11144222' 
TCOON,ioos:station:TCOON:068:1,2005-02-05T02:00:00Z,27.2970,-97.4049,0.0,1.0,50.0,99.0,'11111222,11111222,11144222' 
TCOON,ioos:station:TCOON:068:1,2005-02-05T03:00:00Z,27.2970,-97.4049,0.0,2.0,50.0,99.0,'11111222,11111222,11144222' 
TCOON,ioos:station:TCOON:068:1,2005-02-05T04:00:00Z,27.2970,-97.4049,0.0,1.0,30.0,99.0,'11111222,11111222,11144222' 
TCOON,ioos:station:TCOON:068:1,2005-02-05T05:00:00Z,27.2970,-97.4049,0.0,1.0,40.0,99.0,'11111222,11111222,11144222' 
TCOON,ioos:station:TCOON:068:1,2005-02-05T06:00:00Z,27.2970,-97.4049,0.0,2.0,310.0,99.0,'11111222,11111222,11144222' 
TCOON,ioos:station:TCOON:068:1,2005-02-05T07:00:00Z,27.2970,-97.4049,0.0,4.0,330.0,99.0,'11111222,11111222,11144222' 
TCOON,ioos:station:TCOON:068:1,2005-02-05T08:00:00Z,27.2970,-97.4049,0.0,3.0,340.0,99.0,'11111222,11111222,11144222' 
TCOON,ioos:station:TCOON:068:1,2005-02-05T09:00:00Z,27.2970,-97.4049,0.0,4.0,340.0,99.0,'11111222,11111222,11144222' 
TCOON,ioos:station:TCOON:068:1,2005-02-05T10:00:00Z,27.2970,-97.4049,0.0,5.0,0.0,99.0,'11111222,11111222,11144222' 
TCOON,ioos:station:TCOON:068:1,2005-02-05T11:00:00Z,27.2970,-97.4049,0.0,4.0,360.0,99.0,'11111222,11144222,11144222' 
TCOON,ioos:station:TCOON:068:1,2005-02-05T13:00:00Z,27.2970,-97.4049,0.0,4.0,0.0,99.0,'11111222,11111222,11144222' 
TCOON,ioos:station:TCOON:068:1,2005-02-05T14:00:00Z,27.2970,-97.4049,0.0,3.0,10.0,99.0,'11111222,11111222,11144222' 
TCOON,ioos:station:TCOON:068:1,2005-02-05T15:00:00Z,27.2970,-97.4049,0.0,4.0,20.0,99.0,'11111222,11111222,11144222' 
TCOON,ioos:station:TCOON:068:1,2005-02-05T16:00:00Z,27.2970,-97.4049,0.0,4.0,20.0,99.0,'11111222,11111222,11144222' 
TCOON,ioos:station:TCOON:068:1,2005-02-05T17:00:00Z,27.2970,-97.4049,0.0,4.0,40.0,99.0,'11111222,11111222,11144222' 
TCOON,ioos:station:TCOON:068:1,2005-02-05T19:00:00Z,27.2970,-97.4049,0.0,5.0,40.0,99.0,'11111222,11111222,11144222' 
TCOON,ioos:station:TCOON:068:1,2005-02-05T20:00:00Z,27.2970,-97.4049,0.0,6.0,60.0,99.0,'11111222,11111222,11144222' 
TCOON,ioos:station:TCOON:068:1,2005-02-05T22:00:00Z,27.2970,-97.4049,0.0,5.0,80.0,99.0,'11111222,11111222,11144222' 
TCOON,ioos:station:TCOON:068:1,2005-02-05T23:00:00Z,27.2970,-97.4049,0.0,5.0,90.0,99.0,'11111222,11111222,11144222' 
TCOON,ioos:station:TCOON:068:1,2005-02-06T00:00:00Z,27.2970,-97.4049,0.0,5.0,90.0,99.0,'11111222,11111222,11144222' 
TCOON,ioos:station:TCOON:068:1,2005-02-06T01:00:00Z,27.2970,-97.4049,0.0,6.0,100.0,99.0,'11111222,11111222,11144222' 
TCOON,ioos:station:TCOON:068:1,2005-02-06T02:00:00Z,27.2970,-97.4049,0.0,5.0,90.0,99.0,'11111222,11111222,11144222' 
TCOON,ioos:station:TCOON:068:1,2005-02-06T03:00:00Z,27.2970,-97.4049,0.0,5.0,100.0,99.0,'11111222,11111222,11144222' 
TCOON,ioos:station:TCOON:068:1,2005-02-06T04:00:00Z,27.2970,-97.4049,0.0,5.0,100.0,99.0,'11111222,11111222,11144222' 
TCOON,ioos:station:TCOON:068:1,2005-02-06T05:00:00Z,27.2970,-97.4049,0.0,6.0,110.0,99.0,'11111222,11111222,11144222' 
TCOON,ioos:station:TCOON:068:1,2005-02-06T07:00:00Z,27.2970,-97.4049,0.0,7.0,110.0,99.0,'11111222,11111222,11144222' 
TCOON,ioos:station:TCOON:068:1,2005-02-06T08:00:00Z,27.2970,-97.4049,0.0,6.0,110.0,99.0,'11111222,11111222,11144222' 
TCOON,ioos:station:TCOON:068:1,2005-02-06T10:00:00Z,27.2970,-97.4049,0.0,5.0,140.0,99.0,'11111222,11111222,11144222' 
TCOON,ioos:station:TCOON:068:1,2005-02-06T11:00:00Z,27.2970,-97.4049,0.0,4.0,130.0,99.0,'11111222,11111222,11144222' 
TCOON,ioos:station:TCOON:068:1,2005-02-06T13:00:00Z,27.2970,-97.4049,0.0,4.0,130.0,99.0,'11111222,11111222,11144222' 
TCOON,ioos:station:TCOON:068:1,2005-02-06T14:00:00Z,27.2970,-97.4049,0.0,4.0,120.0,99.0,'11111222,11111222,11144222' 
TCOON,ioos:station:TCOON:068:1,2005-02-06T16:00:00Z,27.2970,-97.4049,0.0,4.0,120.0,99.0,'11111222,11111222,11144222' 
TCOON,ioos:station:TCOON:068:1,2005-02-06T17:00:00Z,27.2970,-97.4049,0.0,2.0,190.0,99.0,'11111222,11111222,11144222' 
TCOON,ioos:station:TCOON:068:1,2005-02-06T19:00:00Z,27.2970,-97.4049,0.0,4.0,110.0,99.0,'11111222,11111222,11144222' 
TCOON,ioos:station:TCOON:068:1,2005-02-06T20:00:00Z,27.2970,-97.4049,0.0,5.0,120.0,99.0,'11111222,11111222,11144222' 
TCOON,ioos:station:TCOON:068:1,2005-02-06T22:00:00Z,27.2970,-97.4049,0.0,7.0,120.0,99.0,'11111222,11111222,11144222' 
TCOON,ioos:station:TCOON:068:1,2005-02-06T23:00:00Z,27.2970,-97.4049,0.0,7.0,120.0,99.0,'11111222,11111222,11144222' 
TCOON,ioos:station:TCOON:068:1,2005-02-07T01:00:00Z,27.2970,-97.4049,0.0,6.0,110.0,99.0,'11111222,11111222,11144222' 
TCOON,ioos:station:TCOON:068:1,2005-02-07T02:00:00Z,27.2970,-97.4049,0.0,5.0,120.0,99.0,'11111222,11111222,11144222' 
TCOON,ioos:station:TCOON:068:1,2005-02-07T04:00:00Z,27.2970,-97.4049,0.0,4.0,120.0,99.0,'11111222,11111222,11144222' 
TCOON,ioos:station:TCOON:068:1,2005-02-07T05:00:00Z,27.2970,-97.4049,0.0,4.0,150.0,99.0,'11111222,11111222,11144222' 
TCOON,ioos:station:TCOON:068:1,2005-02-07T07:00:00Z,27.2970,-97.4049,0.0,3.0,160.0,99.0,'11111222,11111222,11144222' 
TCOON,ioos:station:TCOON:068:1,2005-02-07T08:00:00Z,27.2970,-97.4049,0.0,3.0,160.0,99.0,'11111222,11111222,11144222' 
TCOON,ioos:station:TCOON:068:1,2005-02-07T10:00:00Z,27.2970,-97.4049,0.0,3.0,100.0,99.0,'11111222,11111222,11144222' 
TCOON,ioos:station:TCOON:068:1,2005-02-07T11:00:00Z,27.2970,-97.4049,0.0,3.0,110.0,99.0,'11111222,11111222,11144222' 
TCOON,ioos:station:TCOON:068:1,2005-02-07T13:00:00Z,27.2970,-97.4049,0.0,1.0,120.0,99.0,'11111222,11111222,11144222' 
TCOON,ioos:station:TCOON:068:1,2005-02-07T14:00:00Z,27.2970,-97.4049,0.0,1.0,150.0,99.0,'11111222,11111222,11144222' 
TCOON,ioos:station:TCOON:068:1,2005-02-07T16:00:00Z,27.2970,-97.4049,0.0,3.0,130.0,99.0,'11111222,11111222,11144222' 
TCOON,ioos:station:TCOON:068:1,2005-02-07T17:00:00Z,27.2970,-97.4049,0.0,2.0,120.0,99.0,'11111222,11111222,11144222' 
TCOON,ioos:station:TCOON:068:1,2005-02-07T19:00:00Z,27.2970,-97.4049,0.0,2.0,90.0,99.0,'11111222,11111222,11144222' 
TCOON,ioos:station:TCOON:068:1,2005-02-07T20:00:00Z,27.2970,-97.4049,0.0,4.0,100.0,99.0,'11111222,11111222,11144222' 
TCOON,ioos:station:TCOON:068:1,2005-02-07T22:00:00Z,27.2970,-97.4049,0.0,4.0,90.0,99.0,'11111222,11111222,11144222' 
TCOON,ioos:station:TCOON:068:1,2005-02-07T23:00:00Z,27.2970,-97.4049,0.0,5.0,90.0,99.0,'11111222,11111222,11144222' 
TCOON,ioos:station:TCOON:068:1,2005-02-08T01:00:00Z,27.2970,-97.4049,0.0,7.0,30.0,99.0,'11111222,11111222,11144222' 
TCOON,ioos:station:TCOON:068:1,2005-02-08T02:00:00Z,27.2970,-97.4049,0.0,6.0,20.0,99.0,'11111222,11111222,11144222' 
TCOON,ioos:station:TCOON:068:1,2005-02-08T04:00:00Z,27.2970,-97.4049,0.0,6.0,20.0,99.0,'11111222,11111222,11144222' 
TCOON,ioos:station:TCOON:068:1,2005-02-08T05:00:00Z,27.2970,-97.4049,0.0,4.0,20.0,99.0,'11111222,11111222,11144222' 
TCOON,ioos:station:TCOON:068:1,2005-02-08T07:00:00Z,27.2970,-97.4049,0.0,2.0,10.0,99.0,'11111222,11111222,11144222' 
TCOON,ioos:station:TCOON:068:1,2005-02-08T08:00:00Z,27.2970,-97.4049,0.0,4.0,10.0,99.0,'11111222,11111222,11144222' 
TCOON,ioos:station:TCOON:068:1,2005-02-08T10:00:00Z,27.2970,-97.4049,0.0,5.0,10.0,99.0,'11111222,11111222,11144222' 
TCOON,ioos:station:TCOON:068:1,2005-02-08T11:00:00Z,27.2970,-97.4049,0.0,4.0,20.0,99.0,'11111222,11111222,11144222' 
TCOON,ioos:station:TCOON:068:1,2005-02-08T12:00:00Z,27.2970,-97.4049,0.0,4.0,10.0,99.0,'11111222,11111222,11144222' 
TCOON,ioos:station:TCOON:068:1,2005-02-08T13:00:00Z,27.2970,-97.4049,0.0,4.0,20.0,99.0,'11111222,11111222,11144222' 
TCOON,ioos:station:TCOON:068:1,2005-02-08T14:00:00Z,27.2970,-97.4049,0.0,3.0,20.0,99.0,'11111222,11111222,11144222' 
TCOON,ioos:station:TCOON:068:1,2005-02-08T16:00:00Z,27.2970,-97.4049,0.0,2.0,330.0,99.0,'11111222,11111222,11144222' 
TCOON,ioos:station:TCOON:068:1,2005-02-08T17:00:00Z,27.2970,-97.4049,0.0,2.0,10.0,99.0,'11111222,11111222,11144222' 
TCOON,ioos:station:TCOON:068:1,2005-02-08T19:00:00Z,27.2970,-97.4049,0.0,1.0,80.0,99.0,'11111222,11111222,11144222' 
TCOON,ioos:station:TCOON:068:1,2005-02-08T20:00:00Z,27.2970,-97.4049,0.0,3.0,100.0,99.0,'11111222,11111222,11144222' 
TCOON,ioos:station:TCOON:068:1,2005-02-08T22:00:00Z,27.2970,-97.4049,0.0,7.0,120.0,99.0,'11111222,11111222,11144222' 
TCOON,ioos:station:TCOON:068:1,2005-02-08T23:00:00Z,27.2970,-97.4049,0.0,7.0,120.0,99.0,'11111222,11111222,11144222' 
TCOON,ioos:station:TCOON:068:1,2005-02-09T01:00:00Z,27.2970,-97.4049,0.0,7.0,130.0,99.0,'11111222,11111222,11144222' 
TCOON,ioos:station:TCOON:068:1,2005-02-09T02:00:00Z,27.2970,-97.4049,0.0,6.0,140.0,99.0,'11111222,11111222,11144222' 
TCOON,ioos:station:TCOON:068:1,2005-02-09T04:00:00Z,27.2970,-97.4049,0.0,6.0,140.0,99.0,'11111222,11111222,11144222' 
TCOON,ioos:station:TCOON:068:1,2005-02-09T05:00:00Z,27.2970,-97.4049,0.0,4.0,150.0,99.0,'11111222,11111222,11144222' 
TCOON,ioos:station:TCOON:068:1,2005-02-09T07:00:00Z,27.2970,-97.4049,0.0,1.0,160.0,99.0,'11111222,11111222,11144222' 
TCOON,ioos:station:TCOON:068:1,2005-02-09T08:00:00Z,27.2970,-97.4049,0.0,2.0,150.0,99.0,'11111222,11111222,11144222' 
TCOON,ioos:station:TCOON:068:1,2005-02-09T10:00:00Z,27.2970,-97.4049,0.0,2.0,70.0,99.0,'11111222,11111222,11144222' 
TCOON,ioos:station:TCOON:068:1,2005-02-09T11:00:00Z,27.2970,-97.4049,0.0,3.0,60.0,99.0,'11111222,11111222,11144222' 
TCOON,ioos:station:TCOON:068:1,2005-02-09T13:00:00Z,27.2970,-97.4049,0.0,2.0,50.0,99.0,'11111222,11111222,11144222' 
TCOON,ioos:station:TCOON:068:1,2005-02-09T14:00:00Z,27.2970,-97.4049,0.0,2.0,40.0,99.0,'11111222,11111222,11144222' 
TCOON,ioos:station:TCOON:068:1,2005-02-09T16:00:00Z,27.2970,-97.4049,0.0,3.0,80.0,99.0,'11111222,11111222,11144222' 
TCOON,ioos:station:TCOON:068:1,2005-02-09T17:00:00Z,27.2970,-97.4049,0.0,2.0,60.0,99.0,'11111222,11111222,11144222' 
TCOON,ioos:station:TCOON:068:1,2005-02-09T19:00:00Z,27.2970,-97.4049,0.0,7.0,30.0,99.0,'11111222,11111222,11144222' 
TCOON,ioos:station:TCOON:068:1,2005-02-09T20:00:00Z,27.2970,-97.4049,0.0,7.0,20.0,99.0,'11111222,11111222,11144222' 
TCOON,ioos:station:TCOON:068:1,2005-02-09T22:00:00Z,27.2970,-97.4049,0.0,9.0,10.0,99.0,'11111222,11111222,11144222' 
TCOON,ioos:station:TCOON:068:1,2005-02-09T23:00:00Z,27.2970,-97.4049,0.0,9.0,10.0,99.0,'11111222,11111222,11144222' 
TCOON,ioos:station:TCOON:068:1,2005-02-10T00:00:00Z,27.2970,-97.4049,0.0,9.0,10.0,99.0,'11111222,11111222,11144222' 
TCOON,ioos:station:TCOON:068:1,2005-02-10T01:00:00Z,27.2970,-97.4049,0.0,7.0,10.0,99.0,'11111222,11111222,11144222' 
TCOON,ioos:station:TCOON:068:1,2005-02-10T02:00:00Z,27.2970,-97.4049,0.0,8.0,0.0,99.0,'11111222,11111222,11144222' 
TCOON,ioos:station:TCOON:068:1,2005-02-10T04:00:00Z,27.2970,-97.4049,0.0,12.0,340.0,99.0,'11111222,11111222,11144222' 
TCOON,ioos:station:TCOON:068:1,2005-02-10T05:00:00Z,27.2970,-97.4049,0.0,9.0,350.0,99.0,'11111222,11111222,11144222' 
TCOON,ioos:station:TCOON:068:1,2005-02-10T07:00:00Z,27.2970,-97.4049,0.0,11.0,350.0,99.0,'11111222,11111222,11144222' 
TCOON,ioos:station:TCOON:068:1,2005-02-10T08:00:00Z,27.2970,-97.4049,0.0,11.0,340.0,99.0,'11111222,11111222,11144222' 
TCOON,ioos:station:TCOON:068:1,2005-02-10T09:00:00Z,27.2970,-97.4049,0.0,10.0,360.0,99.0,'11111222,11144222,11144222' 
TCOON,ioos:station:TCOON:068:1,2005-02-10T10:00:00Z,27.2970,-97.4049,0.0,8.0,10.0,99.0,'11111222,11111222,11144222' 
TCOON,ioos:station:TCOON:068:1,2005-02-10T11:00:00Z,27.2970,-97.4049,0.0,11.0,10.0,99.0,'11111222,11111222,11144222' 
TCOON,ioos:station:TCOON:068:1,2005-02-10T12:00:00Z,27.2970,-97.4049,0.0,8.0,0.0,99.0,'11111222,11111222,11144222' 
TCOON,ioos:station:TCOON:068:1,2005-02-10T13:00:00Z,27.2970,-97.4049,0.0,7.0,340.0,99.0,'11111222,11111222,11144222' 
TCOON,ioos:station:TCOON:068:1,2005-02-10T14:00:00Z,27.2970,-97.4049,0.0,7.0,330.0,99.0,'11111222,11111222,11144222' 
TCOON,ioos:station:TCOON:068:1,2005-02-10T15:00:00Z,27.2970,-97.4049,0.0,7.0,350.0,99.0,'11111222,11111222,11144222' 
TCOON,ioos:station:TCOON:068:1,2005-02-10T16:00:00Z,27.2970,-97.4049,0.0,5.0,360.0,99.0,'11111222,11144222,11144222' 
TCOON,ioos:station:TCOON:068:1,2005-02-10T17:00:00Z,27.2970,-97.4049,0.0,7.0,360.0,99.0,'11111222,11144222,11144222' 
TCOON,ioos:station:TCOON:068:1,2005-02-10T19:00:00Z,27.2970,-97.4049,0.0,6.0,0.0,99.0,'11111222,11111222,11144222' 
TCOON,ioos:station:TCOON:068:1,2005-02-10T20:00:00Z,27.2970,-97.4049,0.0,5.0,20.0,99.0,'11111222,11111222,11144222' 
TCOON,ioos:station:TCOON:068:1,2005-02-10T22:00:00Z,27.2970,-97.4049,0.0,7.0,20.0,99.0,'11111222,11111222,11144222' 
TCOON,ioos:station:TCOON:068:1,2005-02-10T23:00:00Z,27.2970,-97.4049,0.0,8.0,20.0,99.0,'11111222,11111222,11144222' 
TCOON,ioos:station:TCOON:068:1,2005-02-11T01:00:00Z,27.2970,-97.4049,0.0,6.0,20.0,99.0,'11111222,11111222,11144222' 
TCOON,ioos:station:TCOON:068:1,2005-02-11T02:00:00Z,27.2970,-97.4049,0.0,5.0,20.0,99.0,'11111222,11111222,11144222' 
TCOON,ioos:station:TCOON:068:1,2005-02-11T04:00:00Z,27.2970,-97.4049,0.0,4.0,10.0,99.0,'11111222,11111222,11144222' 
TCOON,ioos:station:TCOON:068:1,2005-02-11T05:00:00Z,27.2970,-97.4049,0.0,4.0,20.0,99.0,'11111222,11111222,11144222' 
TCOON,ioos:station:TCOON:068:1,2005-02-11T06:00:00Z,27.2970,-97.4049,0.0,5.0,10.0,99.0,'11111222,11111222,11144222' 
TCOON,ioos:station:TCOON:068:1,2005-02-11T07:00:00Z,27.2970,-97.4049,0.0,6.0,10.0,99.0,'11111222,11111222,11144222' 
TCOON,ioos:station:TCOON:068:1,2005-02-11T08:00:00Z,27.2970,-97.4049,0.0,6.0,10.0,99.0,'11111222,11111222,11144222' 
TCOON,ioos:station:TCOON:068:1,2005-02-11T10:00:00Z,27.2970,-97.4049,0.0,7.0,10.0,99.0,'11111222,11111222,11144222' 
TCOON,ioos:station:TCOON:068:1,2005-02-11T11:00:00Z,27.2970,-97.4049,0.0,5.0,10.0,99.0,'11111222,11111222,11144222' 
TCOON,ioos:station:TCOON:068:1,2005-02-11T12:00:00Z,27.2970,-97.4049,0.0,6.0,10.0,99.0,'11111222,11111222,11144222' 
TCOON,ioos:station:TCOON:068:1,2005-02-11T13:00:00Z,27.2970,-97.4049,0.0,6.0,10.0,99.0,'11111222,11111222,11144222' 
TCOON,ioos:station:TCOON:068:1,2005-02-11T14:00:00Z,27.2970,-97.4049,0.0,5.0,10.0,99.0,'11111222,11111222,11144222' 
TCOON,ioos:station:TCOON:068:1,2005-02-11T16:00:00Z,27.2970,-97.4049,0.0,4.0,20.0,99.0,'11111222,11111222,11144222' 
TCOON,ioos:station:TCOON:068:1,2005-02-11T17:00:00Z,27.2970,-97.4049,0.0,8.0,30.0,99.0,'11111222,11111222,11144222' 
TCOON,ioos:station:TCOON:068:1,2005-02-11T19:00:00Z,27.2970,-97.4049,0.0,6.0,40.0,99.0,'11111222,11111222,11144222' 
TCOON,ioos:station:TCOON:068:1,2005-02-11T20:00:00Z,27.2970,-97.4049,0.0,5.0,20.0,99.0,'11111222,11111222,11144222' 
TCOON,ioos:station:TCOON:068:1,2005-02-11T21:00:00Z,27.2970,-97.4049,0.0,7.0,30.0,99.0,'11111222,11111222,11144222' 
TCOON,ioos:station:TCOON:068:1,2005-02-11T22:00:00Z,27.2970,-97.4049,0.0,5.0,40.0,99.0,'11111222,11111222,11144222' 
TCOON,ioos:station:TCOON:068:1,2005-02-11T23:00:00Z,27.2970,-97.4049,0.0,6.0,30.0,99.0,'11111222,11111222,11144222' 